AXI32 KSAV-KNEW

Flight info

Callsign AXI32
Flight time 1h 9m
Altitude 47000
Route BYYOU GPT MNSTR1
Aircraft C750/M-SBDE3FGHRWXY/S

Departure

Time 2026-04-23 21:57
Airport Savannah Hilton Head International Airport (KSAV)

Arrival

Time 2026-04-23 23:06
Airport Lakefront Airport (KNEW)
Time Latitude Longitude Altitude Speed Heading
2026-04-23 21:44 32.12263 -81.19744 50 ft 0 kts 181°
2026-04-23 21:53 32.12286 -81.19744 46 ft 7 kts 181°
2026-04-23 21:53 32.12303 -81.19743 50 ft 0 kts 180°
2026-04-23 21:53 32.12301 -81.19745 46 ft 2 kts 204°
2026-04-23 21:53 32.12322 -81.19810 50 ft 17 kts 356°
2026-04-23 21:54 32.12490 -81.19812 46 ft 28 kts 359°
2026-04-23 21:54 32.12690 -81.19814 48 ft 30 kts 359°
2026-04-23 21:54 32.12913 -81.19818 42 ft 33 kts 360°
2026-04-23 21:54 32.13138 -81.19815 49 ft 32 kts
2026-04-23 21:55 32.13346 -81.19818 48 ft 27 kts 357°
2026-04-23 21:55 32.13503 -81.19819 50 ft 18 kts
2026-04-23 21:55 32.13552 -81.19859 50 ft 7 kts 282°
2026-04-23 21:55 32.13554 -81.19905 47 ft 6 kts 272°
2026-04-23 21:56 32.13556 -81.19967 45 ft 11 kts 272°
2026-04-23 21:56 32.13503 -81.20012 47 ft 8 kts 179°
2026-04-23 21:56 32.13484 -81.20011 47 ft 7 kts 179°
2026-04-23 21:56 32.13269 -81.20011 43 ft 82 kts 179°
2026-04-23 21:57 32.12465 -81.20005 238 ft 116 kts 177°
2026-04-23 21:57 32.11649 -81.20009 321 ft 134 kts 179°
2026-04-23 21:57 32.10577 -81.20055 719 ft 175 kts 180°
2026-04-23 21:57 32.09263 -81.20197 1375 ft 193 kts 184°
2026-04-23 21:58 32.08169 -81.20887 2382 ft 170 kts 230°
2026-04-23 21:58 32.07779 -81.22232 3403 ft 179 kts 252°
2026-04-23 21:58 32.07573 -81.23774 3977 ft 209 kts 271°
2026-04-23 21:58 32.07939 -81.25561 4549 ft 238 kts 284°
2026-04-23 21:59 32.08403 -81.27511 5385 ft 249 kts 282°
2026-04-23 21:59 32.08777 -81.29494 6499 ft 253 kts 279°
2026-04-23 21:59 32.09143 -81.31585 7337 ft 263 kts 280°
2026-04-23 22:00 32.09809 -81.35141 9229 ft 269 kts 281°
2026-04-23 22:00 32.10216 -81.37317 10228 ft 274 kts 281°
2026-04-23 22:00 32.10625 -81.39536 11115 ft 279 kts 281°
2026-04-23 22:00 32.11042 -81.41788 12001 ft 285 kts 282°
2026-04-23 22:01 32.11484 -81.44173 12352 ft 311 kts 282°
2026-04-23 22:01 32.11965 -81.46775 12531 ft 339 kts 282°
2026-04-23 22:01 32.12487 -81.49595 12721 ft 362 kts 282°
2026-04-23 22:01 32.13023 -81.52495 13579 ft 362 kts 282°
2026-04-23 22:02 32.13560 -81.55415 14274 ft 367 kts 282°
2026-04-23 22:02 32.14105 -81.58370 14946 ft 370 kts 282°
2026-04-23 22:02 32.14653 -81.61354 15628 ft 374 kts 282°
2026-04-23 22:02 32.15205 -81.64365 16332 ft 377 kts 282°
2026-04-23 22:03 32.15762 -81.67400 17107 ft 379 kts 282°
2026-04-23 22:03 32.16321 -81.70461 17839 ft 384 kts 282°
2026-04-23 22:03 32.16887 -81.73557 18552 ft 388 kts 282°
2026-04-23 22:03 32.17458 -81.76687 19220 ft 392 kts 282°
2026-04-23 22:04 32.18033 -81.79844 19908 ft 396 kts 282°
2026-04-23 22:04 32.18614 -81.83038 20591 ft 400 kts 282°
2026-04-23 22:04 32.19201 -81.86272 21280 ft 405 kts 282°
2026-04-23 22:04 32.19603 -81.89578 21836 ft 411 kts 271°
2026-04-23 22:05 32.19321 -81.92947 22551 ft 415 kts 259°
2026-04-23 22:05 32.18612 -81.96267 23203 ft 420 kts 256°
2026-04-23 22:05 32.17865 -81.99612 23825 ft 423 kts 256°
2026-04-23 22:05 32.17125 -82.02994 24295 ft 428 kts 256°
2026-04-23 22:06 32.16389 -82.06407 24937 ft 430 kts 256°
2026-04-23 22:06 32.15637 -82.09846 25543 ft 432 kts 256°
2026-04-23 22:06 32.14875 -82.13292 26102 ft 436 kts 256°
2026-04-23 22:06 32.14100 -82.16816 26682 ft 439 kts 256°
2026-04-23 22:07 32.13333 -82.20316 27263 ft 442 kts 256°
2026-04-23 22:07 32.12558 -82.23840 27819 ft 446 kts 255°
2026-04-23 22:07 32.11772 -82.27395 28377 ft 449 kts 255°
2026-04-23 22:07 32.10981 -82.30975 28935 ft 452 kts 255°
2026-04-23 22:08 32.10184 -82.34579 29458 ft 456 kts 255°
2026-04-23 22:08 32.09381 -82.38206 30007 ft 458 kts 255°
2026-04-23 22:08 32.08570 -82.41855 30445 ft 462 kts 255°
2026-04-23 22:08 32.07752 -82.45536 30858 ft 466 kts 255°
2026-04-23 22:09 32.06930 -82.49230 31432 ft 465 kts 255°
2026-04-23 22:09 32.06110 -82.52910 32060 ft 464 kts 256°
2026-04-23 22:09 32.05290 -82.56586 32640 ft 464 kts 256°
2026-04-23 22:09 32.04469 -82.60258 33248 ft 463 kts 256°
2026-04-23 22:10 32.03646 -82.63931 33831 ft 463 kts 256°
2026-04-23 22:10 32.02824 -82.67597 34393 ft 463 kts 256°
2026-04-23 22:10 32.02001 -82.71265 34943 ft 462 kts 256°
2026-04-23 22:10 32.01180 -82.74916 35505 ft 461 kts 256°
2026-04-23 22:11 32.00359 -82.78561 36083 ft 460 kts 256°
2026-04-23 22:11 31.99538 -82.82203 36633 ft 460 kts 256°
2026-04-23 22:11 31.98710 -82.85876 36797 ft 469 kts 256°
2026-04-23 22:11 31.97861 -82.89631 36927 ft 477 kts 256°
2026-04-23 22:12 31.97001 -82.93426 37190 ft 483 kts 256°
2026-04-23 22:12 31.96129 -82.97266 37460 ft 488 kts 256°
2026-04-23 22:12 31.95248 -83.01145 37735 ft 492 kts 256°
2026-04-23 22:12 31.94361 -83.05044 38011 ft 495 kts 256°
2026-04-23 22:13 31.93470 -83.08955 38287 ft 493 kts 256°
2026-04-23 22:13 31.92583 -83.12837 38567 ft 490 kts 256°
2026-04-23 22:13 31.91697 -83.16713 38816 ft 491 kts 256°
2026-04-23 22:13 31.90799 -83.20641 39211 ft 490 kts 256°
2026-04-23 22:14 31.89924 -83.24454 39607 ft 488 kts 256°
2026-04-23 22:14 31.89040 -83.28301 39981 ft 486 kts 256°
2026-04-23 22:14 31.88159 -83.32133 40362 ft 485 kts 256°
2026-04-23 22:14 31.87279 -83.35957 40744 ft 483 kts 256°
2026-04-23 22:15 31.86400 -83.39766 41134 ft 481 kts 256°
2026-04-23 22:15 31.85523 -83.43559 41521 ft 480 kts 256°
2026-04-23 22:15 31.84638 -83.47388 41903 ft 478 kts 256°
2026-04-23 22:15 31.83766 -83.51153 42285 ft 477 kts 256°
2026-04-23 22:16 31.82894 -83.54911 42657 ft 475 kts 256°
2026-04-23 22:16 31.82025 -83.58650 43035 ft 474 kts 256°
2026-04-23 22:16 31.81157 -83.62380 43409 ft 472 kts 256°
2026-04-23 22:16 31.80291 -83.66096 43777 ft 471 kts 256°
2026-04-23 22:17 31.79427 -83.69801 44151 ft 469 kts 256°
2026-04-23 22:17 31.78563 -83.73496 44517 ft 468 kts 256°
2026-04-23 22:17 31.77701 -83.77180 44856 ft 467 kts 256°
2026-04-23 22:17 31.76839 -83.80862 45127 ft 466 kts 256°
2026-04-23 22:18 31.75977 -83.84533 45395 ft 466 kts 256°
2026-04-23 22:18 31.75114 -83.88207 45663 ft 466 kts 256°
2026-04-23 22:18 31.74249 -83.91879 45916 ft 466 kts 256°
2026-04-23 22:18 31.73386 -83.95544 46183 ft 466 kts 256°
2026-04-23 22:19 31.72520 -83.99212 46421 ft 465 kts 256°
2026-04-23 22:19 31.71654 -84.02877 46638 ft 465 kts 256°
2026-04-23 22:19 31.70788 -84.06537 46850 ft 466 kts 256°
2026-04-23 22:19 31.69925 -84.10172 47044 ft 455 kts 256°
2026-04-23 22:20 31.68240 -84.17272 47049 ft 453 kts 256°
2026-04-23 22:20 31.66527 -84.24471 47048 ft 462 kts 256°
2026-04-23 22:21 31.64779 -84.31786 47067 ft 467 kts 256°
2026-04-23 22:21 31.63026 -84.39107 47065 ft 464 kts 256°
2026-04-23 22:22 31.61277 -84.46393 47066 ft 464 kts 256°
2026-04-23 22:22 31.59521 -84.53686 47067 ft 465 kts 256°
2026-04-23 22:23 31.57762 -84.60974 47065 ft 464 kts 256°
2026-04-23 22:23 31.55997 -84.68262 47058 ft 464 kts 255°
2026-04-23 22:24 31.54232 -84.75535 47056 ft 464 kts 255°
2026-04-23 22:24 31.52462 -84.82808 47054 ft 464 kts 255°
2026-04-23 22:25 31.50688 -84.90075 47056 ft 464 kts 255°
2026-04-23 22:25 31.48911 -84.97340 47057 ft 464 kts 255°
2026-04-23 22:26 31.47129 -85.04602 47058 ft 464 kts 255°
2026-04-23 22:26 31.45342 -85.11864 47053 ft 462 kts 255°
2026-04-23 22:27 31.43557 -85.19100 47054 ft 463 kts 255°
2026-04-23 22:27 31.41767 -85.26336 47058 ft 462 kts 255°
2026-04-23 22:28 31.39976 -85.33562 47085 ft 462 kts 255°
2026-04-23 22:28 31.38178 -85.40789 47090 ft 462 kts 255°
2026-04-23 22:29 31.36379 -85.48005 47088 ft 461 kts 255°
2026-04-23 22:29 31.34582 -85.55197 47031 ft 461 kts 255°
2026-04-23 22:30 31.32790 -85.62350 47030 ft 461 kts 255°
2026-04-23 22:30 31.30982 -85.69544 47031 ft 461 kts 255°
2026-04-23 22:31 31.29171 -85.76732 47032 ft 461 kts 255°
2026-04-23 22:31 31.27356 -85.83919 47050 ft 461 kts 255°
2026-04-23 22:32 31.25536 -85.91106 47052 ft 461 kts 255°
2026-04-23 22:32 31.23713 -85.98285 47051 ft 461 kts 255°
2026-04-23 22:33 31.21886 -86.05464 47047 ft 461 kts 255°
2026-04-23 22:33 31.20055 -86.12641 47040 ft 461 kts 255°
2026-04-23 22:34 31.18220 -86.19811 47035 ft 460 kts 256°
2026-04-23 22:34 31.16693 -86.25766 47040 ft 455 kts 256°
2026-04-23 22:35 31.14872 -86.32856 47044 ft 457 kts 256°
2026-04-23 22:35 31.13039 -86.39963 47054 ft 457 kts 256°
2026-04-23 22:36 31.11207 -86.47058 47053 ft 456 kts 256°
2026-04-23 22:36 31.09368 -86.54158 47049 ft 457 kts 256°
2026-04-23 22:37 31.07529 -86.61243 47043 ft 455 kts 256°
2026-04-23 22:37 31.05689 -86.68310 47044 ft 456 kts 256°
2026-04-23 22:38 31.03843 -86.75386 47044 ft 456 kts 256°
2026-04-23 22:38 31.01994 -86.82456 47033 ft 456 kts 256°
2026-04-23 22:39 31.00142 -86.89520 47033 ft 456 kts 256°
2026-04-23 22:39 30.98285 -86.96582 47019 ft 455 kts 256°
2026-04-23 22:40 30.96428 -87.03628 47014 ft 454 kts 256°
2026-04-23 22:41 30.93638 -87.14188 47023 ft 455 kts 256°
2026-04-23 22:41 30.91770 -87.21231 47009 ft 455 kts 256°
2026-04-23 22:42 30.89901 -87.28266 47022 ft 455 kts 256°
2026-04-23 22:42 30.88027 -87.35301 47027 ft 454 kts 257°
2026-04-23 22:42 30.87089 -87.38815 46824 ft 458 kts 257°
2026-04-23 22:43 30.86138 -87.42385 46336 ft 464 kts 257°
2026-04-23 22:43 30.85178 -87.45968 45841 ft 463 kts 256°
2026-04-23 22:43 30.84219 -87.49530 45345 ft 459 kts 256°
2026-04-23 22:43 30.83272 -87.53063 44850 ft 455 kts 257°
2026-04-23 22:44 30.82333 -87.56568 44292 ft 453 kts 256°
2026-04-23 22:44 30.81395 -87.60065 43711 ft 453 kts 256°
2026-04-23 22:44 30.80451 -87.63574 43147 ft 456 kts 256°
2026-04-23 22:44 30.79497 -87.67110 42602 ft 460 kts 256°
2026-04-23 22:45 30.78536 -87.70670 42078 ft 463 kts 255°
2026-04-23 22:45 30.77568 -87.74256 41570 ft 465 kts 255°
2026-04-23 22:45 30.76597 -87.77846 41056 ft 466 kts 255°
2026-04-23 22:45 30.75621 -87.81449 40564 ft 469 kts 254°
2026-04-23 22:46 30.74639 -87.85070 40082 ft 471 kts 254°
2026-04-23 22:46 30.73660 -87.88678 39615 ft 474 kts 254°
2026-04-23 22:46 30.72661 -87.92351 39151 ft 476 kts 253°
2026-04-23 22:46 30.71666 -87.96009 38909 ft 474 kts 253°
2026-04-23 22:47 30.70670 -87.99661 38675 ft 475 kts 253°
2026-04-23 22:47 30.69671 -88.03325 38407 ft 476 kts 253°
2026-04-23 22:47 30.68667 -88.07000 38135 ft 478 kts 253°
2026-04-23 22:47 30.67646 -88.10734 37850 ft 479 kts 253°
2026-04-23 22:48 30.66638 -88.14415 37575 ft 478 kts 253°
2026-04-23 22:48 30.65644 -88.18037 37422 ft 477 kts 253°
2026-04-23 22:48 30.64638 -88.21704 37292 ft 477 kts 253°
2026-04-23 22:48 30.63628 -88.25381 37073 ft 480 kts 253°
2026-04-23 22:49 30.62591 -88.29149 36425 ft 486 kts 253°
2026-04-23 22:49 30.61561 -88.32883 35785 ft 485 kts 253°
2026-04-23 22:49 30.60534 -88.36605 35148 ft 484 kts 253°
2026-04-23 22:49 30.59507 -88.40325 34511 ft 485 kts 253°
2026-04-23 22:50 30.58475 -88.44059 33850 ft 486 kts 253°
2026-04-23 22:50 30.57439 -88.47798 33184 ft 487 kts 253°
2026-04-23 22:50 30.56401 -88.51542 32543 ft 489 kts 253°
2026-04-23 22:50 30.55357 -88.55303 31906 ft 491 kts 254°
2026-04-23 22:51 30.54308 -88.59080 31247 ft 493 kts 254°
2026-04-23 22:51 30.53272 -88.62793 30615 ft 472 kts 254°
2026-04-23 22:51 30.52281 -88.66340 29985 ft 454 kts 254°
2026-04-23 22:51 30.51326 -88.69772 29372 ft 442 kts 254°
2026-04-23 22:52 30.50383 -88.73163 28795 ft 443 kts 254°
2026-04-23 22:52 30.49433 -88.76564 28192 ft 444 kts 254°
2026-04-23 22:52 30.48480 -88.79960 27600 ft 442 kts 254°
2026-04-23 22:52 30.47532 -88.83340 27021 ft 439 kts 254°
2026-04-23 22:53 30.46592 -88.86693 26441 ft 435 kts 254°
2026-04-23 22:53 30.45663 -88.90004 25871 ft 430 kts 254°
2026-04-23 22:53 30.44739 -88.93290 25313 ft 427 kts 254°
2026-04-23 22:53 30.43822 -88.96545 24748 ft 424 kts 254°
2026-04-23 22:54 30.42923 -88.99738 24200 ft 420 kts 253°
2026-04-23 22:54 30.42019 -89.02946 23648 ft 417 kts 253°
2026-04-23 22:54 30.41122 -89.06122 23055 ft 413 kts 253°
2026-04-23 22:54 30.40125 -89.09222 22515 ft 410 kts 249°
2026-04-23 22:55 30.38993 -89.12246 21978 ft 408 kts 249°
2026-04-23 22:55 30.37880 -89.15261 21446 ft 406 kts 249°
2026-04-23 22:55 30.36784 -89.18260 20913 ft 402 kts 249°
2026-04-23 22:55 30.35692 -89.21225 20384 ft 399 kts 249°
2026-04-23 22:56 30.34600 -89.24168 19858 ft 396 kts 249°
2026-04-23 22:56 30.33520 -89.27084 19348 ft 393 kts 249°
2026-04-23 22:56 30.32447 -89.29989 18831 ft 390 kts 249°
2026-04-23 22:56 30.31384 -89.32863 18315 ft 387 kts 249°
2026-04-23 22:57 30.30325 -89.35716 17757 ft 384 kts 249°
2026-04-23 22:57 30.29276 -89.38543 17258 ft 381 kts 249°
2026-04-23 22:57 30.28237 -89.41345 16759 ft 378 kts 249°
2026-04-23 22:57 30.27201 -89.44133 16262 ft 377 kts 249°
2026-04-23 22:58 30.26172 -89.46900 15767 ft 372 kts 249°
2026-04-23 22:58 30.25152 -89.49638 15277 ft 370 kts 249°
2026-04-23 22:58 30.24136 -89.52366 14789 ft 369 kts 249°
2026-04-23 22:58 30.23128 -89.55071 14288 ft 363 kts 249°
2026-04-23 22:59 30.22130 -89.57747 13813 ft 362 kts 249°
2026-04-23 22:59 30.21136 -89.60409 13308 ft 359 kts 248°
2026-04-23 22:59 30.20151 -89.63044 12830 ft 356 kts 249°
2026-04-23 22:59 30.19173 -89.65662 12369 ft 355 kts 248°
2026-04-23 23:00 30.18193 -89.68284 11896 ft 355 kts 248°
2026-04-23 23:00 30.17221 -89.70879 11407 ft 350 kts 248°
2026-04-23 23:00 30.16245 -89.73482 11010 ft 345 kts 247°
2026-04-23 23:00 30.15305 -89.76017 10950 ft 337 kts 248°
2026-04-23 23:01 30.14442 -89.78472 9704 ft 329 kts 252°
2026-04-23 23:01 30.14164 -89.80915 7543 ft 288 kts 270°
2026-04-23 23:01 30.14382 -89.83159 6269 ft 280 kts 278°
2026-04-23 23:01 30.14706 -89.85405 5521 ft 282 kts 278°
2026-04-23 23:02 30.15036 -89.87621 4809 ft 283 kts 278°
2026-04-23 23:02 30.15304 -89.89848 4020 ft 277 kts 266°
2026-04-23 23:02 30.14946 -89.92011 3230 ft 272 kts 250°
2026-04-23 23:02 30.14400 -89.93998 2522 ft 240 kts 248°
2026-04-23 23:03 30.13918 -89.95787 1993 ft 234 kts 248°
2026-04-23 23:03 30.13459 -89.97516 1999 ft 216 kts 248°
2026-04-23 23:03 30.13053 -89.99106 2000 ft 197 kts 249°
2026-04-23 23:03 30.12628 -90.00543 1880 ft 182 kts 238°
2026-04-23 23:04 30.11966 -90.01734 1587 ft 170 kts 226°
2026-04-23 23:04 30.11116 -90.02634 1277 ft 157 kts 210°
2026-04-23 23:04 30.10193 -90.03043 1170 ft 126 kts 185°
2026-04-23 23:04 30.09357 -90.03129 885 ft 119 kts 176°
2026-04-23 23:05 30.08534 -90.03101 616 ft 116 kts 174°
2026-04-23 23:05 30.07747 -90.03065 503 ft 113 kts 172°
2026-04-23 23:05 30.06931 -90.03037 382 ft 121 kts 171°
2026-04-23 23:05 30.06071 -90.03016 222 ft 124 kts 173°
2026-04-23 23:06 30.05247 -90.02996 45 ft 112 kts 169°
2026-04-23 23:06 30.04526 -90.02975 13 ft 90 kts 181°
2026-04-23 23:06 30.04044 -90.02966 13 ft 47 kts 182°
2026-04-23 23:06 30.03759 -90.02968 11 ft 36 kts 180°
2026-04-23 23:07 30.03604 -90.02959 10 ft 10 kts 148°
2026-04-23 23:07 30.03584 -90.02897 11 ft 8 kts 92°
2026-04-23 23:07 30.03583 -90.02842 11 ft 6 kts 90°
2026-04-23 23:07 30.03583 -90.02768 11 ft 12 kts 90°
2026-04-23 23:08 30.03576 -90.02698 11 ft 4 kts 47°
2026-04-23 23:08 30.03581 -90.02691 11 ft 0 kts 49°